• In Österreich
  • Länderverzeichnis
  • Für 7 Tage
  • Wassertemperatur
  • Satellitenkarten
  • Wetterkarte
  • News
  • Widgets
  • user-avatar
    Anmelden

    Stündliche Wetter Las Tablas

    Heute, 22 Oktober, Montag

    Zeit Temperatur Niederschläge Wind Luftdruck Luftfeuchtigkeit
    00:00 +27°C° 0.1 mm 3 m/S 752 mmHg 89%
    01:00 +26°C° 0 mm 3 m/S 752 mmHg 89%
    02:00 +26°C° 0 mm 3 m/S 751 mmHg 89%
    03:00 +26°C° 0 mm 3 m/S 751 mmHg 89%
    04:00 +26°C° 0 mm 3 m/S 751 mmHg 89%
    05:00 +26°C° 0.2 mm 3 m/S 752 mmHg 89%
    06:00 +26°C° 0.2 mm 3 m/S 752 mmHg 89%
    07:00 +26°C° 0.2 mm 3 m/S 752 mmHg 88%
    08:00 +27°C° 0.3 mm 3 m/S 752 mmHg 84%
    09:00 +28°C° 0.3 mm 3 m/S 753 mmHg 80%
    10:00 +29°C° 0.3 mm 3 m/S 753 mmHg 75%
    11:00 +30°C° 0.5 mm 3 m/S 753 mmHg 74%
    12:00 +30°C° 0.5 mm 3 m/S 752 mmHg 72%
    13:00 +31°C° 0.5 mm 3 m/S 752 mmHg 71%
    14:00 +31°C° 0.4 mm 3 m/S 751 mmHg 71%
    15:00 +31°C° 0.4 mm 3 m/S 751 mmHg 70%
    16:00 +31°C° 0.4 mm 2 m/S 751 mmHg 70%
    17:00 +30°C° 0.6 mm 2 m/S 751 mmHg 75%
    18:00 +29°C° 0.6 mm 2 m/S 751 mmHg 79%
    19:00 +28°C° 0.6 mm 2 m/S 752 mmHg 84%
    20:00 +27°C° 0.1 mm 2 m/S 752 mmHg 85%
    21:00 +27°C° 0.1 mm 2 m/S 753 mmHg 86%
    22:00 +27°C° 0.1 mm 2 m/S 753 mmHg 86%
    23:00 +27°C° 0 mm 2 m/S 753 mmHg 87%

    Morgen, 23 Oktober, Dienstag

    Zeit Temperatur Niederschläge Wind Luftdruck Luftfeuchtigkeit
    00:00 +27°C° 0 mm 2 m/S 753 mmHg 87%
    01:00 +27°C° 0 mm 2 m/S 752 mmHg 88%
    02:00 +26°C° 0 mm 2 m/S 752 mmHg 88%
    03:00 +26°C° 0 mm 2 m/S 752 mmHg 89%
    04:00 +26°C° 0 mm 2 m/S 751 mmHg 89%
    05:00 +26°C° 0 mm 2 m/S 752 mmHg 89%
    06:00 +26°C° 0 mm 2 m/S 752 mmHg 89%
    07:00 +26°C° 0 mm 2 m/S 752 mmHg 88%
    08:00 +28°C° 0 mm 2 m/S 753 mmHg 82%
    09:00 +29°C° 0 mm 2 m/S 753 mmHg 75%
    10:00 +30°C° 0 mm 2 m/S 754 mmHg 69%
    11:00 +31°C° 0.1 mm 2 m/S 753 mmHg 66%
    12:00 +31°C° 0.1 mm 2 m/S 753 mmHg 64%
    13:00 +32°C° 0.1 mm 1 m/S 752 mmHg 61%
    14:00 +32°C° 1.1 mm 1 m/S 752 mmHg 64%
    15:00 +31°C° 1.1 mm 1 m/S 751 mmHg 67%
    16:00 +31°C° 1.1 mm 1 m/S 751 mmHg 70%
    17:00 +30°C° 1.5 mm 1 m/S 751 mmHg 75%
    18:00 +29°C° 1.5 mm 1 m/S 751 mmHg 79%
    19:00 +28°C° 1.5 mm 1 m/S 751 mmHg 84%
    20:00 +28°C° 0.9 mm 1 m/S 752 mmHg 85%
    21:00 +27°C° 0.9 mm 1 m/S 753 mmHg 85%
    22:00 +27°C° 0.9 mm 1 m/S 753 mmHg 86%
    23:00 +27°C° 0.1 mm 1 m/S 753 mmHg 86%

    übermorgen, 24 Oktober, Mittwoch

    Zeit Temperatur Niederschläge Wind Luftdruck Luftfeuchtigkeit
    00:00 +27°C° 0.1 mm 2 m/S 753 mmHg 86%
    01:00 +27°C° 0.1 mm 2 m/S 752 mmHg 87%
    02:00 +27°C° 0 mm 2 m/S 752 mmHg 87%
    03:00 +26°C° 0 mm 2 m/S 752 mmHg 87%
    04:00 +26°C° 0 mm 2 m/S 751 mmHg 88%
    05:00 +26°C° 0 mm 2 m/S 752 mmHg 88%
    06:00 +27°C° 0 mm 2 m/S 752 mmHg 88%
    07:00 +27°C° 0 mm 2 m/S 752 mmHg 87%
    08:00 +28°C° 0.1 mm 2 m/S 753 mmHg 82%
    09:00 +29°C° 0.1 mm 2 m/S 753 mmHg 77%
    10:00 +30°C° 0.1 mm 2 m/S 754 mmHg 71%
    11:00 +31°C° 0.5 mm 1 m/S 753 mmHg 70%
    12:00 +31°C° 0.5 mm 1 m/S 752 mmHg 68%
    13:00 +30°C° 0.5 mm 0 m/S 752 mmHg 67%
    14:00 +31°C° 1.8 mm 1 m/S 751 mmHg 70%
    15:00 +31°C° 1.8 mm 1 m/S 750 mmHg 72%
    16:00 +30°C° 1.8 mm 2 m/S 750 mmHg 75%
    17:00 +29°C° 1.6 mm 2 m/S 750 mmHg 79%
    18:00 +28°C° 1.6 mm 2 m/S 751 mmHg 83%
    19:00 +28°C° 1.6 mm 2 m/S 751 mmHg 86%
    20:00 +27°C° 0.6 mm 2 m/S 752 mmHg 87%
    21:00 +27°C° 0.6 mm 2 m/S 752 mmHg 87%
    22:00 +27°C° 0.6 mm 2 m/S 753 mmHg 87%
    23:00 +27°C° 0.1 mm 2 m/S 752 mmHg 87%

    25 Oktober, Donnerstag

    Zeit Temperatur Niederschläge Wind Luftdruck Luftfeuchtigkeit
    00:00 +27°C° 0.1 mm 2 m/S 752 mmHg 87%
    01:00 +27°C° 0.1 mm 3 m/S 752 mmHg 88%
    02:00 +26°C° 0 mm 3 m/S 751 mmHg 88%
    03:00 +26°C° 0 mm 3 m/S 751 mmHg 88%
    04:00 +26°C° 0 mm 3 m/S 751 mmHg 88%
    05:00 +26°C° 0 mm 2 m/S 751 mmHg 88%
    06:00 +27°C° 0 mm 2 m/S 752 mmHg 88%
    07:00 +27°C° 0 mm 2 m/S 752 mmHg 87%
    08:00 +28°C° 0.1 mm 2 m/S 752 mmHg 83%
    09:00 +29°C° 0.1 mm 2 m/S 753 mmHg 80%
    10:00 +30°C° 0.1 mm 2 m/S 753 mmHg 76%
    11:00 +30°C° 0.3 mm 2 m/S 752 mmHg 73%
    12:00 +31°C° 0.3 mm 1 m/S 752 mmHg 71%
    13:00 +31°C° 0.3 mm 1 m/S 751 mmHg 69%
    14:00 +31°C° 1 mm 1 m/S 750 mmHg 71%
    15:00 +31°C° 1 mm 2 m/S 750 mmHg 72%
    16:00 +30°C° 1 mm 2 m/S 749 mmHg 74%
    17:00 +30°C° 1.5 mm 2 m/S 750 mmHg 78%
    18:00 +29°C° 1.5 mm 2 m/S 750 mmHg 82%
    19:00 +28°C° 1.5 mm 2 m/S 751 mmHg 87%
    20:00 +27°C° 0.4 mm 2 m/S 751 mmHg 87%
    21:00 +27°C° 0.4 mm 2 m/S 751 mmHg 87%
    22:00 +27°C° 0.4 mm 2 m/S 752 mmHg 88%
    23:00 +27°C° 0.1 mm 2 m/S 751 mmHg 88%

    26 Oktober, Freitag

    Zeit Temperatur Niederschläge Wind Luftdruck Luftfeuchtigkeit
    00:00 +27°C° 0.1 mm 2 m/S 751 mmHg 87%
    01:00 +27°C° 0.1 mm 2 m/S 751 mmHg 87%
    02:00 +27°C° 0.5 mm 2 m/S 751 mmHg 87%
    03:00 +27°C° 0.5 mm 2 m/S 750 mmHg 87%
    04:00 +26°C° 0.5 mm 2 m/S 750 mmHg 87%
    05:00 +27°C° 0.4 mm 2 m/S 751 mmHg 87%
    06:00 +27°C° 0.4 mm 2 m/S 751 mmHg 86%
    07:00 +27°C° 0.4 mm 2 m/S 752 mmHg 86%
    08:00 +28°C° 0.5 mm 2 m/S 752 mmHg 81%
    09:00 +29°C° 0.5 mm 2 m/S 752 mmHg 76%
    10:00 +31°C° 0.5 mm 1 m/S 752 mmHg 71%
    11:00 +31°C° 0.9 mm 1 m/S 752 mmHg 70%
    12:00 +31°C° 0.9 mm 1 m/S 751 mmHg 68%
    13:00 +32°C° 0.9 mm 1 m/S 750 mmHg 66%
    14:00 +31°C° 1.4 mm 2 m/S 750 mmHg 69%
    15:00 +31°C° 1.4 mm 2 m/S 749 mmHg 71%
    16:00 +31°C° 1.4 mm 2 m/S 749 mmHg 73%
    17:00 +30°C° 1.2 mm 2 m/S 749 mmHg 77%
    18:00 +29°C° 1.2 mm 2 m/S 750 mmHg 81%
    19:00 +28°C° 1.2 mm 2 m/S 751 mmHg 85%
    20:00 +28°C° 0.6 mm 2 m/S 751 mmHg 85%
    21:00 +28°C° 0.6 mm 2 m/S 751 mmHg 86%
    22:00 +27°C° 0.6 mm 2 m/S 752 mmHg 86%
    23:00 +27°C° 0.5 mm 2 m/S 752 mmHg 87%

    27 Oktober, Samstag

    Zeit Temperatur Niederschläge Wind Luftdruck Luftfeuchtigkeit
    00:00 +27°C° 0.5 mm 2 m/S 751 mmHg 87%
    01:00 +27°C° 0.5 mm 2 m/S 751 mmHg 87%
    02:00 +27°C° 0.7 mm 2 m/S 751 mmHg 87%
    03:00 +27°C° 0.7 mm 2 m/S 751 mmHg 88%
    04:00 +27°C° 0.7 mm 2 m/S 750 mmHg 88%
    05:00 +27°C° 0.2 mm 2 m/S 751 mmHg 87%
    06:00 +27°C° 0.2 mm 2 m/S 751 mmHg 87%
    07:00 +27°C° 0.2 mm 2 m/S 752 mmHg 87%
    08:00 +28°C° 0.6 mm 2 m/S 752 mmHg 82%
    09:00 +29°C° 0.6 mm 2 m/S 752 mmHg 78%
    10:00 +30°C° 0.6 mm 3 m/S 753 mmHg 74%
    11:00 +30°C° 1.2 mm 3 m/S 752 mmHg 74%
    12:00 +30°C° 1.2 mm 2 m/S 751 mmHg 73%
    13:00 +31°C° 1.2 mm 2 m/S 751 mmHg 73%
    14:00 +30°C° 2.5 mm 3 m/S 750 mmHg 76%
    15:00 +30°C° 2.5 mm 3 m/S 750 mmHg 78%
    16:00 +29°C° 2.5 mm 3 m/S 750 mmHg 80%
    17:00 +29°C° 1.6 mm 2 m/S 750 mmHg 83%
    18:00 +28°C° 1.6 mm 2 m/S 751 mmHg 85%
    19:00 +28°C° 1.6 mm 2 m/S 751 mmHg 87%
    20:00 +27°C° 0.5 mm 1 m/S 752 mmHg 87%
    21:00 +27°C° 0.5 mm 1 m/S 752 mmHg 88%
    22:00 +27°C° 0.5 mm 1 m/S 753 mmHg 88%
    23:00 +27°C° 0 mm 1 m/S 752 mmHg 88%

    28 Oktober, Sonntag

    Zeit Temperatur Niederschläge Wind Luftdruck Luftfeuchtigkeit
    00:00 +27°C° 0 mm 1 m/S 752 mmHg 88%
    01:00 +27°C° 0 mm 1 m/S 752 mmHg 88%
    02:00 +27°C° 0 mm 1 m/S 751 mmHg 88%
    03:00 +27°C° 0 mm 1 m/S 751 mmHg 89%
    04:00 +26°C° 0 mm 2 m/S 751 mmHg 89%
    05:00 +27°C° 0 mm 1 m/S 752 mmHg 88%
    06:00 +27°C° 0 mm 1 m/S 752 mmHg 87%
    07:00 +27°C° 0 mm 1 m/S 753 mmHg 87%
    08:00 +28°C° 0 mm 1 m/S 753 mmHg 82%
    09:00 +29°C° 0 mm 1 m/S 753 mmHg 78%
    10:00 +30°C° 0 mm 2 m/S 753 mmHg 73%
    11:00 +31°C° 0.2 mm 2 m/S 753 mmHg 72%
    12:00 +31°C° 0.2 mm 2 m/S 752 mmHg 70%
    13:00 +31°C° 0.2 mm 2 m/S 751 mmHg 69%
    14:00 +31°C° 0.5 mm 2 m/S 751 mmHg 72%
    15:00 +30°C° 0.5 mm 2 m/S 751 mmHg 75%
    16:00 +30°C° 0.5 mm 2 m/S 750 mmHg 78%
    17:00 +29°C° 0.7 mm 1 m/S 751 mmHg 81%
    18:00 +29°C° 0.7 mm 1 m/S 751 mmHg 84%
    19:00 +28°C° 0.7 mm 1 m/S 752 mmHg 87%
    20:00 +28°C° 0.1 mm 1 m/S 752 mmHg 88%
    21:00 +27°C° 0.1 mm 1 m/S 752 mmHg 88%
    22:00 +27°C° 0.1 mm 1 m/S 753 mmHg 89%
    23:00 +27°C° 0.4 mm 1 m/S 752 mmHg 89%
    Mehr zeigen